Torna al catalogo

COSMOS 2251 DEB

AttivoLEO
NORAD 35012·DEBRIS·🇷🇺 Russia

Lanciato Jun 16, 1993 da Plesetsk Cosmodrome

Loading…

Prossimi Passaggi (prossime 24 ore)

TLE

AggiornatoSource: Space-Track

Epoca: Sep 14, 2026, 10:01 UTC

1 35012U 93036AFZ 26257.41782669  .00000212  00000-0  65281-4 0  9998
2 35012  74.0211 317.1008 0079818  28.9502 331.6047 14.45782398915456

Traccia COSMOS 2251 DEB in tempo reale con AllMySat

Download on the App Store